Location: Gombori
(14.9797°N, 2.9419°W)
Time: 23:38:20
(UTC+00:00)

Cosmos 2150 Rocket - Pass Details

Date: 07 December 2021
Orbit: 748 x 808 km, 74.0° (Epoch: 23 January)

Event Time Altitude Azimuth Distance (km) Brightness Sun altitude
Rises 19:47:38 0° 334° (NNW) 3,222 7.3 -29.4°
Reaches altitude 10° 19:50:06 10° 327° (NNW) 2,304 6.6 -30.0°
Maximum altitude 19:54:57 39° 259° (W) 1,146 5.3 -31.1°
Drops below altitude 10° 19:59:53 10° 191° (S) 2,339 6.8 -32.2°
Sets 20:02:25 0° 183° (S) 3,276 7.5 -32.8°
